Weather observations for the past three days for
Hearne, Hearne Municipal Airport
Imperial (Metric)
Date Time (cdt) Wind (mph) Vis. (mi.) Weather Sky Cond. Temperature (ºF) Relative Humidity Wind Chill (°F) Heat Index (°F) Pressure Precipitation (in)
Air Dwpt 6 hour altimeter (in) sea level (mb) 1 hr 3 hr 6 hr
Max. Min.
17 04:35 Calm 7.00 Fair CLR 78.8 76.1 91% 83 30 0.0
17 04:15 Calm 7.00 Fair CLR 78.8 76.1 91% 83 30 0.0
17 03:55 Calm 10.00 Partly Cloudy SCT013 79.3 76.3 90% 84 29.99 0.0
17 03:35 Calm 10.00 Partly Cloudy SCT013 79.5 76.3 90% 84 29.99 0.0
17 03:15 S 6 10.00 Partly Cloudy SCT013 79.7 76.3 89% 85 29.99 0.0
17 02:55 S 6 10.00 Partly Cloudy SCT013 80.4 76.5 88% 86 29.98 0.0
17 02:35 S 7 10.00 Fair CLR 80.6 76.3 87% 87 29.97 0.0
17 02:15 S 9 10.00 Fair CLR 81 76.1 85% 87 29.96 0.0
17 01:55 S 8 10.00 Fair CLR 81.3 76.1 84% 88 29.97 0.0
17 01:35 S 8 10.00 Fair CLR 81.5 76.1 84% 88 29.97 0.0
17 01:15 S 7 10.00 Fair CLR 81.7 76.1 83% 89 29.96 0.0
17 00:55 S 9 10.00 Fair CLR 82 76.1 95 81.9 82% 89 29.96 0.0
17 00:35 SE 8 10.00 Fair CLR 82 75.7 81% 89 29.95 0.0
17 00:15 SE 7 10.00 Fair CLR 81.9 75.6 81% 89 29.95 0.0
16 23:55 SE 6 10.00 Fair CLR 82.4 75.2 79% 89 29.96 0.0
16 23:35 SE 6 10.00 Fair CLR 82.8 74.8 77% 90 29.95 0.0
16 23:15 SE 3 10.00 Fair CLR 83.1 74.7 76% 90 29.95 0.0
16 22:55 SE 5 10.00 Fair CLR 83.7 74.3 74% 91 29.94 0.0
16 22:35 SE 6 10.00 Fair CLR 84.2 73.8 71% 91 29.93 0.0
16 22:15 SE 5 10.00 Fair CLR 84.6 73.6 70% 92 29.93 0.0
16 21:55 SE 5 10.00 Fair CLR 85.1 73.4 68% 92 29.93 0.0
16 21:35 SE 3 10.00 Fair CLR 86 72.9 65% 93 29.93 0.0
16 21:15 SE 3 10.00 Fair CLR 86.7 72.9 63% 94 29.92 0.0
16 20:55 SE 6 10.00 Fair CLR 88 72.7 61% 95 29.92 0.0
16 20:35 SE 6 10.00 Fair CLR 89.1 72.7 59% 97 29.92 0.0
16 20:15 SE 7 10.00 Fair CLR 90.5 73.2 57% 99 29.92 0.0
16 19:55 SE 8 10.00 Fair CLR 91.9 73 54% 101 29.91 0.0
16 19:35 SE 7 10.00 Fair CLR 93.2 72.5 51% 102 29.92 0.0
16 19:15 SE 7 10.00 Fair CLR 94.1 72.5 50% 103 29.91 0.0
16 18:55 SE 6 10.00 Fair CLR 95 72.3 97.5 92.3 48% 104 29.92 0.0
16 18:35 SE 8 10.00 Fair CLR 95.4 72 47% 104 29.91 0.0
16 18:15 SE 8 10.00 Fair CLR 95.7 72.5 47% 105 29.91 0.0
16 17:55 SE 10 10.00 Fair CLR 96.3 72.9 47% 106 29.92 0.0
16 17:35 S 12 10.00 Partly Cloudy SCT055 SCT065 SCT080 95.9 72.7 47% 105 29.92 0.0
16 17:15 SE 8 10.00 Mostly Cloudy BKN055 BKN065 BKN080 95.2 72.9 49% 105 29.92 0.0
16 16:55 SE 7 10.00 Mostly Cloudy BKN055 BKN065 BKN080 97 72.9 46% 107 29.93 0.0
16 16:35 SE 7 10.00 Partly Cloudy SCT055 96.8 72.3 45% 106 29.93 0.0
16 16:15 SE 5 10.00 Partly Cloudy SCT055 95.9 71.6 45% 104 29.94 0.0
16 15:55 S 12 G 16 10.00 Partly Cloudy SCT055 95.5 70.9 45% 103 29.94 0.0
16 15:35 SW 9 G 23 10.00 Partly Cloudy SCT055 95.9 71.1 45% 104 29.95 0.0
16 15:15 S 7 G 16 10.00 Fair CLR 96.4 72.3 46% 106 29.95 0.0
16 14:55 S 7 G 16 10.00 Fair CLR 96.6 71.8 45% 105 29.96 0.0
16 14:35 S 10 10.00 Fair CLR 95.5 73.4 49% 106 29.96 0.0
16 14:15 S 9 10.00 Partly Cloudy SCT046 94.8 73.4 50% 105 29.97 0.0
16 13:55 SW 8 7.00 Partly Cloudy SCT046 93.6 72.7 51% 102 29.98 0.0
16 13:35 SW 7 7.00 Partly Cloudy SCT042 93.6 74.1 53% 104 29.99 0.0
16 13:15 S 5 10.00 Partly Cloudy SCT040 93.2 74.3 54% 104 30 0.0
16 12:55 SE 5 7.00 Partly Cloudy SCT038 92.3 73.9 92.3 76.6 55% 102 30 0.0
16 12:35 SW 10 10.00 Mostly Cloudy BKN036 91.8 73.6 55% 101 30.01 0.0
16 12:15 S 12 10.00 Partly Cloudy SCT036 91 73.9 57% 101 30.01 0.0
16 11:55 S 12 G 16 10.00 Partly Cloudy SCT032 90.7 73.6 57% 100 30.01 0.0
16 11:35 S 12 10.00 Partly Cloudy SCT030 89.6 73.9 60% 99 30.01 0.0
16 11:15 SW 8 10.00 Partly Cloudy SCT028 88.9 74.5 63% 98 30.02 0.0
16 10:55 S 9 10.00 Partly Cloudy SCT024 88 74.7 65% 97 30.02 0.0
16 10:35 SW 10 G 16 10.00 Overcast BKN022 OVC027 86.9 75 68% 96 30.02 0.0
16 10:15 SW 9 G 18 10.00 Mostly Cloudy BKN018 BKN024 86 75.6 71% 96 30.03 0.0
16 09:55 SW 10 10.00 Mostly Cloudy BKN018 BKN024 84 74.8 74% 92 30.03 0.0
16 09:35 S 14 10.00 Overcast OVC016 83.7 75.2 76% 92 30.03 0.0
16 09:15 S 15 G 18 10.00 Overcast OVC014 81.9 75.4 81% 89 30.03 0.0
16 08:55 S 8 10.00 Overcast OVC010 80.8 75.6 84% 87 30.03 0.0
16 08:35 S 7 10.00 Overcast OVC010 79.9 75.7 87% 85 30.03 0.0
16 08:15 S 7 10.00 Overcast OVC010 78.8 75.4 89% 82 30.02 0.0
16 07:55 S 8 10.00 Overcast OVC010 78.4 75.4 90% 82 30.02 0.0
16 07:35 S 7 7.00 Overcast OVC010 77.7 75.2 92% 80 30.01 0.0
16 07:15 SE 3 7.00 Overcast OVC010 77 74.5 92% 78 30 0.0
16 06:55 SE 3 7.00 Overcast OVC010 76.6 74.3 81.5 76.5 93% 77 30 0.0
16 06:35 Calm 7.00 Overcast OVC012 76.6 74.3 93% 77 30 0.0
16 06:15 S 5 7.00 Overcast OVC012 76.5 74.1 93% 77 29.99 0.0
16 05:55 S 3 7.00 Overcast OVC012 77 74.3 91% 78 29.99 0.0
16 05:35 S 6 7.00 Mostly Cloudy BKN012 77 74.3 91% 78 29.99 0.0
16 05:15 S 5 7.00 Mostly Cloudy BKN012 77.2 74.5 91% 79 29.99 0.0
16 04:55 S 6 7.00 Overcast OVC012 77.5 74.7 91% 79 29.98 0.0
16 04:35 S 6 7.00 Mostly Cloudy BKN012 77.9 75.2 91% 80 29.99 0.0
16 04:15 SE 3 7.00 Partly Cloudy SCT012 77.5 74.7 91% 79 29.98 0.0
16 03:55 S 5 7.00 Partly Cloudy SCT012 77.9 74.7 90% 80 29.98 0.0
16 03:35 S 5 7.00 Fair CLR 78.1 74.8 90% 81 29.98 0.0
16 03:15 S 5 7.00 Fair CLR 78.6 74.8 88% 82 29.97 0.0
16 02:55 S 5 7.00 Fair CLR 79 75.2 88% 83 29.97 0.0
16 02:35 SE 6 7.00 Fair CLR 79.7 75.2 86% 84 29.97 0.0
16 02:15 S 6 10.00 Fair CLR 79.9 75.2 86% 85 29.97 0.0
16 01:55 S 8 10.00 Fair CLR 80.4 75.2 84% 86 29.96 0.0
16 01:35 S 9 10.00 Fair CLR 80.6 75.2 84% 86 29.96 0.0
16 01:15 S 7 10.00 Fair CLR 81.1 75.4 83% 87 29.96 0.0
16 00:55 S 8 10.00 Fair CLR 81.5 75.6 93.6 81.5 82% 88 29.96 0.0
16 00:35 S 8 10.00 Fair CLR 81.9 75.9 82% 89 29.96 0.0
16 00:15 S 9 10.00 Fair CLR 82.4 76.1 81% 90 29.96 0.0
15 23:55 S 8 10.00 Fair CLR 82.8 75.9 80% 91 29.96 0.0
15 23:35 SE 9 10.00 Fair CLR 83.3 75.6 78% 91 29.95 0.0
15 23:15 SE 7 7.00 Fair CLR 83.5 75.4 77% 91 29.96 0.0
15 22:55 SE 8 10.00 Fair CLR 83.7 74.8 75% 91 29.96 0.0
15 22:35 SE 8 10.00 Fair CLR 84.2 74.7 73% 92 29.95 0.0
15 22:15 SE 7 10.00 Fair CLR 84.6 74.5 72% 92 29.96 0.0
15 21:55 SE 5 10.00 Fair CLR 85.1 74.3 70% 93 29.95 0.0
15 21:35 SE 6 10.00 Fair CLR 85.8 73.9 68% 94 29.95 0.0
15 21:15 SE 6 10.00 Fair CLR 86.4 73.6 66% 94 29.95 0.0
15 20:55 SE 6 10.00 Fair CLR 87.3 73.2 63% 95 29.95 0.0
15 20:35 SE 6 10.00 Fair CLR 88.7 72.9 60% 96 29.94 0.0
15 20:15 SE 6 10.00 Fair CLR 89.8 72.9 58% 98 29.94 0.0
15 19:55 SE 8 10.00 Fair CLR 91 72.7 55% 99 29.94 0.0
15 19:35 SE 7 10.00 Fair CLR 92.1 72.7 53% 101 29.93 0.0
15 19:15 SE 9 10.00 Fair CLR 93 72.1 51% 101 29.93 0.0
15 18:55 SE 9 10.00 Fair CLR 93.6 72.9 96.6 92.5 51% 103 29.93 0.0
15 18:35 SE 9 10.00 Fair CLR 94.3 73 50% 104 29.94 0.0
15 18:15 S 12 G 17 10.00 Fair CLR 95 72.7 49% 104 29.93 0.0
15 17:55 S 12 G 16 10.00 Partly Cloudy SCT055 95 72.7 49% 104 29.94 0.0
15 17:35 SE 9 10.00 Fair CLR 95.7 72.3 47% 105 29.94 0.0
15 17:15 SE 12 10.00 Fair CLR 96.1 72.1 46% 105 29.94 0.0
15 16:55 SE 10 10.00 Partly Cloudy SCT050 96.1 72 46% 105 29.95 0.0
15 16:35 SE 10 10.00 Partly Cloudy SCT050 96.3 72.5 46% 106 29.96 0.0
15 16:15 S 10 7.00 Partly Cloudy SCT050 96.1 72.1 46% 105 29.97 0.0
15 15:55 S 12 G 16 7.00 Fair CLR 96.1 72.5 47% 105 29.98 0.0
15 15:35 S 9 G 16 10.00 Fair CLR 95.9 72.7 47% 105 29.99 0.0
15 15:15 S 13 10.00 Fair CLR 95.2 72.1 47% 104 30 0.0
15 14:55 S 10 10.00 Fair CLR 95 73.2 49% 105 30.01 0.0
15 14:35 S 9 10.00 Fair CLR 94.5 72.1 48% 103 30.01 0.0
15 14:15 S 10 10.00 Fair CLR 94.3 72.9 50% 103 30.02 0.0
15 13:55 S 8 10.00 Partly Cloudy SCT045 93.6 73.4 52% 103 30.03 0.0
15 13:35 S 10 7.00 Fair CLR 93.2 73 52% 102 30.03 0.0
15 13:15 S 9 G 17 10.00 Fair CLR 92.7 72.7 52% 101 30.04 0.0
15 12:55 S 9 7.00 Fair CLR 92.3 74.3 92.3 76.3 56% 103 30.05 0.0
15 12:35 S 8 7.00 Partly Cloudy SCT037 91.4 73.4 56% 100 30.06 0.0
15 12:15 S 6 10.00 Partly Cloudy SCT035 90.9 74.5 59% 101 30.06 0.0
15 11:55 S 10 7.00 Partly Cloudy SCT033 90.5 74.8 60% 101 30.07 0.0
15 11:35 S 6 7.00 Fair CLR 89.6 74.1 60% 99 30.08 0.0
15 11:15 S 10 10.00 Fair CLR 88.7 73.4 61% 97 30.09 0.0
15 10:55 S 9 10.00 Fair CLR 88 73.2 62% 96 30.09 0.0
15 10:35 SW 7 7.00 Fair CLR 87.3 74.3 65% 96 30.09 0.0
15 10:15 S 10 7.00 Partly Cloudy SCT018 86.4 75.2 69% 96 30.1 0.0
15 09:55 SW 10 7.00 Mostly Cloudy BKN014 84.7 76.3 76% 94 30.1 0.0
15 09:35 S 7 10.00 Mostly Cloudy SCT006 BKN012 84 77.4 80% 94 30.1 0.0
15 09:15 S 7 7.00 Mostly Cloudy BKN006 BKN014 79.9 77.9 94% 86 30.1 0.0
15 08:55 S 7 5.00 Fog/Mist OVC002 78.6 77.4 96% 82 30.11 0.0
15 08:35 S 5 3.00 Fog/Mist OVC002 78.1 76.8 96% 81 30.1 0.0
15 08:15 SE 3 0.75 Fog/Mist OVC002 77.4 76.1 96% 79 30.1 0.0
15 07:55 Calm 0.50 Fog OVC002 76.8 75.6 96% 77 30.1 0.0
15 07:35 Calm 0.25 Fog OVC002 76.5 75.2 96% 76 30.09 0.0
15 07:15 Calm 0.50 Fog OVC002 76.3 75.2 96% 76 30.08 0.0
15 06:55 Calm 2.50 Fog/Mist OVC002 76.3 74.8 78.8 76.1 95% 76 30.08 0.0
15 06:35 Calm 4.00 Fog/Mist BKN002 BKN014 76.1 74.7 95% 76 30.08 0.0
15 06:15 Calm 5.00 Partly Cloudy SCT014 76.1 74.7 95% 76 30.08 0.0
15 05:55 SE 3 5.00 Fair CLR 76.3 74.8 95% 76 30.08 0.0
15 05:35 SE 5 5.00 Fog/Mist CLR 76.5 75.2 96% 76 30.08 0.0
15 05:15 Calm 7.00 Partly Cloudy SCT015 76.5 75 95% 77 30.08 0.0
15 04:55 SE 3 7.00 Fair CLR 76.5 75 95% 77 30.06 0.0
15 04:35 Calm 7.00 Fair CLR 76.5 74.8 95% 77 30.06 0.0
15 04:15 Calm 7.00 Fair CLR 76.6 74.8 94% 77 30.06 0.0
15 03:55 Calm 7.00 Fair CLR 76.6 74.8 94% 77 30.06 0.0
15 03:35 Calm 7.00 Fair CLR 77 75.2 94% 78 30.06 0.0
15 03:15 Calm 7.00 Fair CLR 77.2 75.2 94% 78 30.06 0.0
15 02:55 Calm 7.00 Fair CLR 77.5 75.4 93% 79 30.06 0.0
15 02:35 Calm 7.00 Fair CLR 77.9 75.6 93% 80 30.06 0.0
15 02:15 SE 3 7.00 Fair CLR 78.1 75.7 93% 81 30.06 0.0
15 01:55 SE 3 7.00 Fair CLR 78.4 75.7 91% 82 30.06 0.0
15 01:35 SE 5 7.00 Fair CLR 78.8 75.7 90% 82 30.06 0.0
15 01:15 S 3 7.00 Fair CLR 78.8 75.7 90% 82 30.07 0.0
15 00:55 Calm 7.00 Fair CLR 78.8 75.6 90 78.8 90% 82 30.07 0.0
15 00:35 Calm 7.00 Fair CLR 79.2 75.7 89% 83 30.07 0.0
15 00:15 Calm 7.00 Fair CLR 79.7 75.9 88% 85 30.07 0.0
14 23:55 Calm 7.00 Fair CLR 80.1 75.7 87% 85 30.07 0.0
14 23:35 SE 3 10.00 Fair CLR 80.6 75.7 85% 86 30.07 0.0
14 23:15 SE 6 10.00 Fair CLR 81 75.7 84% 87 30.06 0.0
14 22:55 SE 5 10.00 Fair CLR 81.3 75.6 83% 88 30.07 0.0
14 22:35 SE 5 10.00 Fair CLR 81.5 75.6 82% 88 30.07 0.0
14 22:15 SE 6 10.00 Fair CLR 81.9 75.2 80% 89 30.07 0.0
14 21:55 SE 6 10.00 Fair CLR 82.6 74.7 77% 89 30.06 0.0
14 21:35 Calm 7.00 Fair CLR 83.5 74.3 74% 91 30.06 0.0
14 21:15 SE 5 10.00 Fair CLR 83.8 74.1 73% 91 30.06 0.0
14 20:55 S 6 10.00 Fair CLR 84.4 73.9 71% 92 30.06 0.0
14 20:35 S 7 7.00 Fair CLR 85.6 73.9 68% 93 30.06 0.0
14 20:15 S 7 7.00 Fair CLR 86.9 73.2 64% 94 30.06 0.0
14 19:55 S 8 7.00 Fair CLR 88 73 61% 96 30.06 0.0
14 19:35 S 10 10.00 Fair CLR 89.1 73.9 61% 98 30.06 0.0
14 19:15 S 10 10.00 Fair CLR 89.6 74.8 62% 100 30.06 0.0
14 18:55 S 10 G 18 10.00 Fair CLR 90.1 73.6 92.7 89.4 58% 99 30.07 0.0
14 18:35 S 10 10.00 Fair CLR 91 74.3 58% 101 30.07 0.0
14 18:15 S 8 10.00 Fair CLR 91 73.9 57% 101 30.07 0.0
14 17:55 S 10 10.00 Fair CLR 90.9 74.3 58% 101 30.08 0.0
14 17:35 S 12 10.00 Fair CLR 91.8 73.6 55% 101 30.08 0.0
14 17:15 S 13 10.00 Fair CLR 91.6 72.3 53% 100 30.08 0.0
14 16:55 S 10 10.00 Fair CLR 91.6 72.9 54% 100 30.09 0.0
14 16:35 S 7 7.00 Fair CLR 91 73.4 56% 100 30.1 0.0
14 16:15 S 10 10.00 Fair CLR 91.6 72.7 54% 100 30.1 0.0
14 15:55 S 12 G 16 10.00 Partly Cloudy SCT041 90.5 73.8 58% 100 30.1 0.0
14 15:35 SW 12 10.00 Partly Cloudy SCT041 92.3 74.1 55% 102 30.11 0.0
14 15:15 S 7 7.00 Fair CLR 92.7 72.9 53% 101 30.11 0.0
14 14:55 S 10 G 16 7.00 Partly Cloudy SCT038 92.3 74.5 56% 103 30.12 0.0
14 14:35 S 12 7.00 Partly Cloudy SCT038 SCT045 92.3 75 57% 104 30.12 0.0
14 14:15 S 8 10.00 Mostly Cloudy SCT038 BKN044 90.9 75.2 60% 102 30.13 0.0
14 13:55 S 8 10.00 Partly Cloudy SCT035 91.8 74.8 58% 103 30.13 0.0
14 13:35 S 7 10.00 Partly Cloudy SCT033 90.7 74.5 59% 101 30.14 0.0
14 13:15 S 9 10.00 Partly Cloudy SCT031 90.3 75.9 63% 102 30.14 0.0
14 12:55 S 8 10.00 Partly Cloudy SCT029 89.1 76.1 89.4 76.5 66% 101 30.15 0.0
14 12:35 S 8 10.00 Partly Cloudy SCT028 89.1 76.6 67% 101 30.16 0.0
14 12:15 S 9 10.00 Partly Cloudy SCT026 88.3 76.6 68% 100 30.17 0.0
14 11:55 S 7 10.00 Partly Cloudy SCT022 86.7 76.3 71% 97 30.17 0.0
14 11:35 SW 6 10.00 Mostly Cloudy BKN020 86.5 77.2 74% 98 30.17 0.0
14 11:15 SW 7 10.00 Mostly Cloudy BKN018 85.3 76.6 75% 96 30.18 0.0
14 10:55 S 6 10.00 Overcast OVC016 84 77 80% 94 30.18 0.0
14 10:35 S 3 10.00 Overcast OVC011 81.9 77 85% 90 30.18 0.0
14 10:15 S 5 10.00 Overcast BKN008 OVC013 80.8 77 88% 88 30.18 0.0
14 09:55 Calm 10.00 Overcast OVC006 79.7 76.8 91% 85 30.18 0.0
14 09:35 Calm 7.00 Overcast OVC006 78.8 76.1 91% 83 30.18 0.0
14 09:15 Calm 10.00 Overcast OVC006 78.4 75.9 92% 82 30.18 0.0
14 08:55 Calm 10.00 Overcast OVC006 78.4 76.1 93% 82 30.18 0.0
14 08:35 Calm 10.00 Overcast OVC008 77.9 75.6 93% 80 30.18 0.0
14 08:15 Calm 10.00 Overcast OVC010 77.2 75.2 94% 78 30.17 0.0
14 07:55 Calm 10.00 Overcast OVC012 76.8 75 94% 78 30.17 0.0
14 07:35 Calm 10.00 Mostly Cloudy BKN012 76.6 74.8 94% 77 30.17 0.0
14 07:15 Calm 10.00 Partly Cloudy SCT014 76.5 74.7 94% 77 30.16 0.0
14 06:55 Calm 10.00 Partly Cloudy SCT014 76.5 74.7 77.5 76.3 94% 77 30.16 0.0
14 06:35 Calm 10.00 Fair CLR 76.3 74.5 94% 76 30.15 0.0
14 06:15 Calm 10.00 Fair CLR 76.3 74.5 94% 76 30.15 0.0
14 05:55 Calm 7.00 Fair CLR 76.5 74.7 94% 77 30.15 0.0
14 05:35 Calm 7.00 Fair CLR 76.3 74.3 94% 76 30.15 0.0
14 05:15 Calm 7.00 Fair CLR 76.5 74.5 94% 77 30.14 0.0
14 04:55 Calm 7.00 Fair CLR 76.5 74.5 94% 77 30.14 0.0
Date Time (cdt) Wind (mph) Vis. (mi.) Weather Sky Cond. Air Dwpt Max. Min. Relative Humidity Wind Chill (°F) Heat Index (°F) altimeter (in) sea level (mb) 1 hr 3 hr 6 hr
6 hour
Temperature (ºF) Pressure Precipitation (in)